Location: Charbonni�res
(45.9952°N, 2.9982°E)
Time: 14:41:04
(UTC+00:00)

Geosat - Pass Details

Date: 29 November 2020
Orbit: 762 x 766 km, 108.0° (Epoch: 26 January)

Event Time Altitude Azimuth Distance (km) Brightness Sun altitude
Rises 06:14:38 0° 141° (SE) 3,214 8.4 -9.0°
Reaches altitude 10° 06:16:54 10° 138° (SE) 2,292 7.6 -8.7°
Maximum altitude 06:21:51 65° 58° (ENE) 840 4.4 -7.9°
Drops below altitude 10° 06:26:49 10° 337° (NNW) 2,308 6.1 -7.1°
Sets 06:29:07 0° 335° (NNW) 3,239 6.8 -6.7°
Enters shadow 06:29:12 - 335° (NNW) 3,274 6.8 -6.7°
